Location: Newark
(47.5000°N, 4.6167°E)
Time: 01:53:31
(UTC+00:00)

ISS - Pass Details

Date: 24 May 2021
Orbit: 417 x 422 km, 51.6° (Epoch: 14 June)

Event Time Altitude Azimuth Distance (km) Brightness Sun altitude
Rises 20:58:04 0° 290° (WNW) 2,367 1.1 -12.7°
Reaches altitude 10° 21:00:13 10° 296° (WNW) 1,503 0.1 -12.9°
Maximum altitude 21:03:30 47° 12° (NNE) 566 -2.8 -13.2°
Enters shadow 21:06:37 11° 87° (E) 1,440 -1.4 -13.5°
